DAL2782 KBOS-KRDU

Flight info

Callsign DAL2782
Flight time 1h 45m
Altitude 28000
Route SSOXS7 SSOXS Q167 ZJAAY TAQLE3
Aircraft A319/M-SDE3FGHIRWY/LB1

Departure

Time 2026-05-06 21:20
Airport Boston Logan International Airport (KBOS)

Arrival

Time 2026-05-06 23:06
Airport Raleigh-Durham International Airport (KRDU)
Time Latitude Longitude Altitude Speed Heading
2026-05-06 20:48 42.36412 -71.02284 28 ft 0 kts 65°
2026-05-06 21:03 42.36409 -71.02293 30 ft 1 kts 65°
2026-05-06 21:03 42.36404 -71.02306 29 ft 1 kts 65°
2026-05-06 21:03 42.36400 -71.02318 29 ft 1 kts 65°
2026-05-06 21:04 42.36395 -71.02330 30 ft 1 kts 68°
2026-05-06 21:04 42.36394 -71.02345 27 ft 1 kts 153°
2026-05-06 21:04 42.36378 -71.02336 30 ft 3 kts 165°
2026-05-06 21:04 42.36358 -71.02332 27 ft 3 kts 182°
2026-05-06 21:05 42.36339 -71.02335 26 ft 3 kts 184°
2026-05-06 21:05 42.36319 -71.02337 28 ft 3 kts 184°
2026-05-06 21:05 42.36299 -71.02338 27 ft 3 kts 184°
2026-05-06 21:05 42.36279 -71.02340 26 ft 3 kts 184°
2026-05-06 21:06 42.36263 -71.02342 25 ft 0 kts 184°
2026-05-06 21:09 42.36259 -71.02342 25 ft 1 kts 184°
2026-05-06 21:10 42.36247 -71.02344 29 ft 2 kts 184°
2026-05-06 21:10 42.36225 -71.02346 27 ft 4 kts 184°
2026-05-06 21:10 42.36189 -71.02349 28 ft 7 kts 184°
2026-05-06 21:10 42.36134 -71.02351 27 ft 9 kts 173°
2026-05-06 21:11 42.36082 -71.02317 25 ft 9 kts 149°
2026-05-06 21:11 42.36029 -71.02251 25 ft 11 kts 121°
2026-05-06 21:11 42.35992 -71.02165 28 ft 10 kts 121°
2026-05-06 21:11 42.35954 -71.02080 27 ft 10 kts 121°
2026-05-06 21:12 42.35918 -71.01999 25 ft 10 kts 121°
2026-05-06 21:12 42.35882 -71.01917 25 ft 10 kts 120°
2026-05-06 21:12 42.35852 -71.01828 29 ft 11 kts 107°
2026-05-06 21:12 42.35837 -71.01730 25 ft 11 kts 102°
2026-05-06 21:13 42.35822 -71.01630 25 ft 11 kts 98°
2026-05-06 21:13 42.35863 -71.01560 28 ft 10 kts 15°
2026-05-06 21:13 42.35933 -71.01528 28 ft 11 kts 19°
2026-05-06 21:13 42.36004 -71.01494 29 ft 11 kts 19°
2026-05-06 21:14 42.36077 -71.01459 29 ft 12 kts 20°
2026-05-06 21:14 42.36161 -71.01419 28 ft 14 kts 19°
2026-05-06 21:14 42.36258 -71.01371 25 ft 16 kts 20°
2026-05-06 21:14 42.36368 -71.01318 26 ft 18 kts 20°
2026-05-06 21:15 42.36490 -71.01260 26 ft 19 kts 19°
2026-05-06 21:15 42.36616 -71.01199 26 ft 18 kts 20°
2026-05-06 21:15 42.36731 -71.01145 26 ft 17 kts 14°
2026-05-06 21:15 42.36828 -71.01196 26 ft 15 kts 313°
2026-05-06 21:16 42.36909 -71.01198 27 ft 12 kts 37°
2026-05-06 21:16 42.36971 -71.01127 26 ft 11 kts 37°
2026-05-06 21:16 42.37035 -71.01079 25 ft 11 kts 25°
2026-05-06 21:16 42.37114 -71.01028 28 ft 15 kts 25°
2026-05-06 21:17 42.37218 -71.00960 25 ft 19 kts 26°
2026-05-06 21:17 42.37343 -71.00886 29 ft 19 kts 20°
2026-05-06 21:17 42.37424 -71.00848 28 ft 18 kts 19°
2026-05-06 21:17 42.37537 -71.00793 26 ft 16 kts 20°
2026-05-06 21:18 42.37638 -71.00744 27 ft 15 kts 20°
2026-05-06 21:18 42.37730 -71.00699 27 ft 13 kts 19°
2026-05-06 21:18 42.37812 -71.00658 28 ft 12 kts 26°
2026-05-06 21:18 42.37833 -71.00575 25 ft 3 kts 108°
2026-05-06 21:19 42.37832 -71.00571 25 ft 1 kts 108°
2026-05-06 21:19 42.37826 -71.00548 26 ft 4 kts 109°
2026-05-06 21:19 42.37812 -71.00494 28 ft 7 kts 110°
2026-05-06 21:20 42.37777 -71.00481 28 ft 7 kts 195°
2026-05-06 21:20 42.37618 -71.00555 26 ft 59 kts 200°
2026-05-06 21:20 42.36973 -71.00868 30 ft 137 kts 200°
2026-05-06 21:20 42.36059 -71.01313 740 ft 138 kts 198°
2026-05-06 21:21 42.35112 -71.01675 1527 ft 145 kts 196°
2026-05-06 21:21 42.34098 -71.01900 2294 ft 162 kts 182°
2026-05-06 21:21 42.32988 -71.01048 2712 ft 212 kts 142°
2026-05-06 21:21 42.32098 -70.99376 3554 ft 223 kts 134°
2026-05-06 21:22 42.31411 -70.97434 4381 ft 241 kts 114°
2026-05-06 21:22 42.31231 -70.95081 5037 ft 269 kts 93°
2026-05-06 21:22 42.31583 -70.92447 5446 ft 299 kts 83°
2026-05-06 21:22 42.32015 -70.89620 6083 ft 313 kts 84°
2026-05-06 21:23 42.32443 -70.86696 6872 ft 320 kts 85°
2026-05-06 21:23 42.32853 -70.83729 7731 ft 323 kts 88°
2026-05-06 21:23 42.32911 -70.80713 8555 ft 319 kts 103°
2026-05-06 21:23 42.32478 -70.77801 9423 ft 314 kts 117°
2026-05-06 21:24 42.31649 -70.75130 10178 ft 314 kts 125°
2026-05-06 21:24 42.30599 -70.72440 10460 ft 331 kts 133°
2026-05-06 21:24 42.29128 -70.69981 10763 ft 340 kts 145°
2026-05-06 21:24 42.27298 -70.67972 11371 ft 338 kts 156°
2026-05-06 21:25 42.25235 -70.66523 12065 ft 332 kts 168°
2026-05-06 21:25 42.23041 -70.65494 12785 ft 335 kts 171°
2026-05-06 21:25 42.20817 -70.64481 13505 ft 340 kts 170°
2026-05-06 21:25 42.18550 -70.63449 14123 ft 346 kts 170°
2026-05-06 21:26 42.16251 -70.62522 14738 ft 344 kts 177°
2026-05-06 21:26 42.13904 -70.62185 15397 ft 337 kts 187°
2026-05-06 21:26 42.11589 -70.62479 16049 ft 332 kts 198°
2026-05-06 21:26 42.09373 -70.63328 16681 ft 331 kts 204°
2026-05-06 21:27 42.07172 -70.64304 17313 ft 335 kts 204°
2026-05-06 21:27 42.04947 -70.65289 17925 ft 339 kts 204°
2026-05-06 21:27 42.02689 -70.66288 18481 ft 343 kts 204°
2026-05-06 21:27 42.00408 -70.67296 19028 ft 347 kts 204°
2026-05-06 21:28 41.98100 -70.68311 19605 ft 350 kts 204°
2026-05-06 21:28 41.95773 -70.69329 20142 ft 354 kts 204°
2026-05-06 21:28 41.93454 -70.70342 20689 ft 357 kts 204°
2026-05-06 21:28 41.91083 -70.71381 21237 ft 360 kts 204°
2026-05-06 21:29 41.88690 -70.72428 21783 ft 363 kts 204°
2026-05-06 21:29 41.86277 -70.73487 22326 ft 367 kts 204°
2026-05-06 21:29 41.83859 -70.74620 22847 ft 367 kts 208°
2026-05-06 21:29 41.81597 -70.76184 23358 ft 367 kts 214°
2026-05-06 21:30 41.79364 -70.77870 23795 ft 370 kts 214°
2026-05-06 21:30 41.77111 -70.79568 24182 ft 373 kts 214°
2026-05-06 21:30 41.74840 -70.81274 24604 ft 375 kts 214°
2026-05-06 21:30 41.72548 -70.82991 25014 ft 378 kts 215°
2026-05-06 21:31 41.70248 -70.84712 25424 ft 380 kts 215°
2026-05-06 21:31 41.67935 -70.86444 25826 ft 382 kts 215°
2026-05-06 21:31 41.65610 -70.88187 26265 ft 384 kts 216°
2026-05-06 21:31 41.63274 -70.89933 26690 ft 386 kts 216°
2026-05-06 21:32 41.60927 -70.91685 27092 ft 387 kts 216°
2026-05-06 21:32 41.56243 -70.95302 27815 ft 387 kts 222°
2026-05-06 21:32 41.54239 -70.97600 27883 ft 373 kts 232°
2026-05-06 21:33 41.52645 -71.00274 27891 ft 363 kts 240°
2026-05-06 21:33 41.51292 -71.03057 27890 ft 362 kts 240°
2026-05-06 21:33 41.49908 -71.05859 27890 ft 362 kts 240°
2026-05-06 21:33 41.48504 -71.08668 27893 ft 369 kts 240°
2026-05-06 21:34 41.47053 -71.11554 27899 ft 380 kts 240°
2026-05-06 21:34 41.45557 -71.14523 27897 ft 390 kts 240°
2026-05-06 21:34 41.44034 -71.17546 27879 ft 395 kts 240°
2026-05-06 21:34 41.42494 -71.20595 27895 ft 397 kts 240°
2026-05-06 21:35 41.40946 -71.23663 27895 ft 400 kts 240°
2026-05-06 21:35 41.39393 -71.26738 27894 ft 401 kts 240°
2026-05-06 21:35 41.37839 -71.29820 27891 ft 401 kts 240°
2026-05-06 21:35 41.36279 -71.32903 27896 ft 401 kts 240°
2026-05-06 21:36 41.34720 -71.35987 27896 ft 401 kts 240°
2026-05-06 21:36 41.33160 -71.39076 27896 ft 402 kts 240°
2026-05-06 21:36 41.31603 -71.42164 27895 ft 401 kts 240°
2026-05-06 21:36 41.30046 -71.45253 27897 ft 401 kts 240°
2026-05-06 21:37 41.28490 -71.48338 27894 ft 401 kts 240°
2026-05-06 21:37 41.26937 -71.51407 27895 ft 401 kts 240°
2026-05-06 21:37 41.25391 -71.54450 27894 ft 401 kts 240°
2026-05-06 21:37 41.23827 -71.57521 27920 ft 401 kts 240°
2026-05-06 21:38 41.22265 -71.60590 27916 ft 401 kts 240°
2026-05-06 21:38 41.20705 -71.63654 27919 ft 400 kts 240°
2026-05-06 21:38 41.19147 -71.66714 27914 ft 400 kts 240°
2026-05-06 21:38 41.17587 -71.69772 27909 ft 400 kts 240°
2026-05-06 21:39 41.16026 -71.72826 27910 ft 399 kts 240°
2026-05-06 21:39 41.14466 -71.75873 27877 ft 399 kts 240°
2026-05-06 21:39 41.12906 -71.78924 27876 ft 399 kts 240°
2026-05-06 21:39 41.11351 -71.81975 27878 ft 399 kts 240°
2026-05-06 21:40 41.09798 -71.85030 27879 ft 399 kts 240°
2026-05-06 21:40 41.08250 -71.88078 27881 ft 399 kts 240°
2026-05-06 21:40 41.06699 -71.91129 27901 ft 399 kts 240°
2026-05-06 21:40 41.05151 -71.94171 27905 ft 398 kts 240°
2026-05-06 21:41 41.03627 -71.97237 27907 ft 396 kts 244°
2026-05-06 21:41 41.02407 -72.00480 27908 ft 392 kts 248°
2026-05-06 21:41 41.01263 -72.03755 27907 ft 392 kts 248°
2026-05-06 21:41 41.00113 -72.07028 27901 ft 392 kts 248°
2026-05-06 21:42 40.98960 -72.10296 27872 ft 392 kts 248°
2026-05-06 21:42 40.97803 -72.13562 27876 ft 392 kts 248°
2026-05-06 21:42 40.96645 -72.16826 27869 ft 392 kts 248°
2026-05-06 21:42 40.95500 -72.20054 27863 ft 392 kts 248°
2026-05-06 21:43 40.94340 -72.23317 27864 ft 392 kts 248°
2026-05-06 21:43 40.93180 -72.26579 27892 ft 392 kts 248°
2026-05-06 21:43 40.91947 -72.29808 27898 ft 394 kts 243°
2026-05-06 21:43 40.90317 -72.32767 27898 ft 400 kts 234°
2026-05-06 21:44 40.88360 -72.35402 27899 ft 403 kts 231°
2026-05-06 21:44 40.86370 -72.37998 27893 ft 402 kts 231°
2026-05-06 21:44 40.84372 -72.40599 27890 ft 402 kts 231°
2026-05-06 21:44 40.82384 -72.43183 27851 ft 402 kts 231°
2026-05-06 21:45 40.80390 -72.45771 27850 ft 403 kts 230°
2026-05-06 21:45 40.78243 -72.48188 27851 ft 407 kts 226°
2026-05-06 21:45 40.76054 -72.50562 27852 ft 407 kts 226°
2026-05-06 21:45 40.73866 -72.52928 27854 ft 407 kts 226°
2026-05-06 21:46 40.71673 -72.55295 27853 ft 408 kts 226°
2026-05-06 21:46 40.69479 -72.57664 27858 ft 408 kts 226°
2026-05-06 21:46 40.67302 -72.60052 27858 ft 407 kts 227°
2026-05-06 21:46 40.65164 -72.62484 27855 ft 405 kts 229°
2026-05-06 21:47 40.63049 -72.64942 27858 ft 405 kts 229°
2026-05-06 21:47 40.60948 -72.67403 27859 ft 404 kts 229°
2026-05-06 21:47 40.58851 -72.69852 27859 ft 403 kts 229°
2026-05-06 21:47 40.56768 -72.72266 27858 ft 403 kts 229°
2026-05-06 21:48 40.54652 -72.74696 27865 ft 404 kts 229°
2026-05-06 21:48 40.52531 -72.77122 27864 ft 404 kts 228°
2026-05-06 21:48 40.50413 -72.79544 27865 ft 404 kts 228°
2026-05-06 21:48 40.48290 -72.81968 27856 ft 404 kts 228°
2026-05-06 21:49 40.46168 -72.84386 27829 ft 404 kts 229°
2026-05-06 21:49 40.44040 -72.86809 27835 ft 405 kts 229°
2026-05-06 21:49 40.41914 -72.89231 27841 ft 405 kts 229°
2026-05-06 21:49 40.39788 -72.91655 27851 ft 405 kts 229°
2026-05-06 21:50 40.37661 -72.94080 27856 ft 405 kts 229°
2026-05-06 21:50 40.35531 -72.96501 27876 ft 405 kts 229°
2026-05-06 21:50 40.33404 -72.98919 27884 ft 404 kts 229°
2026-05-06 21:50 40.31279 -73.01335 27883 ft 404 kts 229°
2026-05-06 21:51 40.29160 -73.03741 27837 ft 403 kts 229°
2026-05-06 21:51 40.27068 -73.06115 27849 ft 403 kts 229°
2026-05-06 21:51 40.24919 -73.08550 27858 ft 403 kts 229°
2026-05-06 21:51 40.22794 -73.10954 27848 ft 404 kts 229°
2026-05-06 21:52 40.20674 -73.13354 27854 ft 404 kts 229°
2026-05-06 21:52 40.18548 -73.15760 27863 ft 404 kts 229°
2026-05-06 21:52 40.16421 -73.18162 27867 ft 404 kts 229°
2026-05-06 21:52 40.14297 -73.20557 27860 ft 404 kts 229°
2026-05-06 21:53 40.12192 -73.22922 27861 ft 404 kts 229°
2026-05-06 21:53 40.10057 -73.25321 27835 ft 404 kts 229°
2026-05-06 21:53 40.07923 -73.27719 27844 ft 405 kts 229°
2026-05-06 21:53 40.05790 -73.30115 27864 ft 405 kts 229°
2026-05-06 21:54 40.03653 -73.32514 27865 ft 405 kts 229°
2026-05-06 21:54 40.01516 -73.34910 27868 ft 405 kts 229°
2026-05-06 21:54 39.99380 -73.37299 27863 ft 405 kts 229°
2026-05-06 21:54 39.97239 -73.39692 27864 ft 405 kts 229°
2026-05-06 21:55 39.95105 -73.42075 27867 ft 404 kts 229°
2026-05-06 21:55 39.92968 -73.44459 27831 ft 404 kts 229°
2026-05-06 21:55 39.90832 -73.46840 27837 ft 404 kts 229°
2026-05-06 21:55 39.88694 -73.49221 27847 ft 405 kts 229°
2026-05-06 21:56 39.86553 -73.51603 27846 ft 405 kts 229°
2026-05-06 21:56 39.84404 -73.53987 27849 ft 405 kts 229°
2026-05-06 21:56 39.82259 -73.56371 27852 ft 406 kts 229°
2026-05-06 21:56 39.80112 -73.58762 27858 ft 406 kts 229°
2026-05-06 21:57 39.77967 -73.61151 27860 ft 406 kts 229°
2026-05-06 21:57 39.75822 -73.63537 27862 ft 407 kts 229°
2026-05-06 21:57 39.73669 -73.65926 27850 ft 407 kts 229°
2026-05-06 21:57 39.71515 -73.68316 27855 ft 407 kts 229°
2026-05-06 21:58 39.69365 -73.70705 27859 ft 406 kts 229°
2026-05-06 21:58 39.67217 -73.73089 27862 ft 406 kts 229°
2026-05-06 21:58 39.65068 -73.75470 27864 ft 406 kts 229°
2026-05-06 21:58 39.62920 -73.77850 27865 ft 406 kts 229°
2026-05-06 21:59 39.60772 -73.80228 27860 ft 406 kts 229°
2026-05-06 21:59 39.58619 -73.82607 27864 ft 406 kts 229°
2026-05-06 21:59 39.56467 -73.84982 27865 ft 406 kts 229°
2026-05-06 21:59 39.54317 -73.87352 27866 ft 406 kts 229°
2026-05-06 22:00 39.52190 -73.89693 27867 ft 407 kts 229°
2026-05-06 22:00 39.50034 -73.92062 27871 ft 406 kts 229°
2026-05-06 22:00 39.47878 -73.94426 27872 ft 406 kts 229°
2026-05-06 22:00 39.45719 -73.96793 27870 ft 406 kts 229°
2026-05-06 22:01 39.43565 -73.99154 27873 ft 406 kts 229°
2026-05-06 22:01 39.41413 -74.01516 27880 ft 406 kts 229°
2026-05-06 22:01 39.39260 -74.03877 27880 ft 405 kts 229°
2026-05-06 22:01 39.37108 -74.06231 27882 ft 405 kts 229°
2026-05-06 22:02 39.34957 -74.08583 27861 ft 405 kts 229°
2026-05-06 22:02 39.32803 -74.10933 27863 ft 405 kts 228°
2026-05-06 22:02 39.30645 -74.13283 27864 ft 406 kts 228°
2026-05-06 22:02 39.28486 -74.15637 27868 ft 406 kts 228°
2026-05-06 22:03 39.26329 -74.17985 27867 ft 406 kts 228°
2026-05-06 22:03 39.24165 -74.20341 27869 ft 406 kts 228°
2026-05-06 22:03 39.22007 -74.22688 27865 ft 406 kts 228°
2026-05-06 22:03 39.19846 -74.25034 27872 ft 406 kts 228°
2026-05-06 22:04 39.17682 -74.27382 27830 ft 406 kts 228°
2026-05-06 22:04 39.15519 -74.29730 27852 ft 408 kts 228°
2026-05-06 22:04 39.13343 -74.32088 27861 ft 409 kts 228°
2026-05-06 22:04 39.11163 -74.34446 27864 ft 409 kts 228°
2026-05-06 22:05 39.09724 -74.36002 27867 ft 409 kts 228°
2026-05-06 22:05 39.07544 -74.38360 27872 ft 409 kts 228°
2026-05-06 22:05 39.05373 -74.40708 27883 ft 408 kts 228°
2026-05-06 22:05 39.03196 -74.43059 27885 ft 408 kts 228°
2026-05-06 22:06 39.00314 -74.46163 27890 ft 408 kts 228°
2026-05-06 22:06 38.98135 -74.48506 27872 ft 408 kts 228°
2026-05-06 22:06 38.96664 -74.50088 27865 ft 408 kts 228°
2026-05-06 22:06 38.94494 -74.52426 27868 ft 408 kts 228°
2026-05-06 22:07 38.92340 -74.54802 27866 ft 407 kts 229°
2026-05-06 22:07 38.90265 -74.57200 27873 ft 406 kts 230°
2026-05-06 22:07 38.88164 -74.59693 27873 ft 406 kts 231°
2026-05-06 22:07 38.86130 -74.62127 27874 ft 406 kts 231°
2026-05-06 22:08 38.84063 -74.64594 27876 ft 406 kts 230°
2026-05-06 22:08 38.81957 -74.67086 27878 ft 406 kts 230°
2026-05-06 22:08 38.79901 -74.69496 27873 ft 407 kts 230°
2026-05-06 22:08 38.77807 -74.71931 27868 ft 407 kts 230°
2026-05-06 22:09 38.75704 -74.74371 27873 ft 407 kts 230°
2026-05-06 22:09 38.73580 -74.76781 27880 ft 409 kts 229°
2026-05-06 22:09 38.71393 -74.79125 27879 ft 410 kts 227°
2026-05-06 22:09 38.69173 -74.81418 27882 ft 411 kts 226°
2026-05-06 22:10 38.66931 -74.83693 27884 ft 411 kts 226°
2026-05-06 22:10 38.64686 -74.85969 27885 ft 410 kts 226°
2026-05-06 22:10 38.62460 -74.88243 27886 ft 410 kts 227°
2026-05-06 22:10 38.60239 -74.90531 27886 ft 410 kts 227°
2026-05-06 22:11 38.58023 -74.92826 27869 ft 410 kts 227°
2026-05-06 22:11 38.55812 -74.95126 27871 ft 410 kts 227°
2026-05-06 22:11 38.53604 -74.97426 27874 ft 410 kts 227°
2026-05-06 22:11 38.51408 -74.99744 27883 ft 409 kts 228°
2026-05-06 22:12 38.49256 -75.02110 27893 ft 408 kts 229°
2026-05-06 22:12 38.47127 -75.04508 27897 ft 408 kts 229°
2026-05-06 22:12 38.44958 -75.06851 27900 ft 410 kts 227°
2026-05-06 22:12 38.42708 -75.09097 27912 ft 412 kts 225°
2026-05-06 22:13 38.40407 -75.11275 27917 ft 412 kts 224°
2026-05-06 22:13 38.38079 -75.13423 27877 ft 413 kts 223°
2026-05-06 22:13 38.35750 -75.15564 27884 ft 413 kts 223°
2026-05-06 22:13 38.33424 -75.17720 27887 ft 413 kts 223°
2026-05-06 22:14 38.31111 -75.19889 27890 ft 413 kts 224°
2026-05-06 22:14 38.28800 -75.22074 27888 ft 414 kts 224°
2026-05-06 22:14 38.26492 -75.24265 27888 ft 414 kts 224°
2026-05-06 22:14 38.24185 -75.26457 27894 ft 414 kts 224°
2026-05-06 22:15 38.21879 -75.28644 27885 ft 414 kts 224°
2026-05-06 22:15 38.19566 -75.30832 27892 ft 414 kts 224°
2026-05-06 22:15 38.17273 -75.32997 27874 ft 415 kts 223°
2026-05-06 22:15 38.14957 -75.35182 27862 ft 416 kts 223°
2026-05-06 22:16 38.12632 -75.37374 27880 ft 416 kts 223°
2026-05-06 22:16 38.10303 -75.39566 27870 ft 417 kts 223°
2026-05-06 22:16 38.07961 -75.41764 27885 ft 417 kts 223°
2026-05-06 22:16 38.05677 -75.43896 27906 ft 397 kts 224°
2026-05-06 22:17 38.03699 -75.46144 27902 ft 367 kts 236°
2026-05-06 22:17 38.02386 -75.48758 27906 ft 340 kts 249°
2026-05-06 22:17 38.01690 -75.51524 27902 ft 320 kts 261°
2026-05-06 22:17 38.01546 -75.54265 27903 ft 305 kts 272°
2026-05-06 22:18 38.01884 -75.56862 27904 ft 294 kts 282°
2026-05-06 22:18 38.02639 -75.59222 27905 ft 285 kts 292°
2026-05-06 22:18 38.03755 -75.61292 27905 ft 287 kts 302°
2026-05-06 22:18 38.05231 -75.63057 27906 ft 297 kts 313°
2026-05-06 22:19 38.07049 -75.64411 27898 ft 311 kts 325°
2026-05-06 22:19 38.09147 -75.65220 27901 ft 328 kts 338°
2026-05-06 22:19 38.11490 -75.65361 27901 ft 348 kts 353°
2026-05-06 22:19 38.13921 -75.64685 27902 ft 369 kts
2026-05-06 22:20 38.16257 -75.63149 27909 ft 385 kts 22°
2026-05-06 22:20 38.18498 -75.61249 27905 ft 389 kts 26°
2026-05-06 22:20 38.20684 -75.59195 27905 ft 392 kts 28°
2026-05-06 22:20 38.22841 -75.57059 27936 ft 393 kts 28°
2026-05-06 22:21 38.24985 -75.54913 27921 ft 393 kts 27°
2026-05-06 22:21 38.26967 -75.52419 27906 ft 410 kts 46°
2026-05-06 22:21 38.28349 -75.49201 27900 ft 422 kts 68°
2026-05-06 22:21 38.28898 -75.45523 27890 ft 425 kts 91°
2026-05-06 22:22 38.28506 -75.41830 27866 ft 418 kts 114°
2026-05-06 22:22 38.27274 -75.38583 27876 ft 401 kts 135°
2026-05-06 22:22 38.25424 -75.36070 27879 ft 379 kts 154°
2026-05-06 22:22 38.23229 -75.34422 27878 ft 356 kts 172°
2026-05-06 22:23 38.20946 -75.33628 27897 ft 327 kts 187°
2026-05-06 22:23 38.18752 -75.33577 27890 ft 306 kts 200°
2026-05-06 22:23 38.16731 -75.34149 27905 ft 291 kts 211°
2026-05-06 22:23 38.14934 -75.35216 27907 ft 281 kts 220°
2026-05-06 22:24 38.13350 -75.36644 27909 ft 282 kts 232°
2026-05-06 22:24 38.11941 -75.38475 27908 ft 298 kts 233°
2026-05-06 22:24 38.10461 -75.40424 27908 ft 315 kts 233°
2026-05-06 22:24 38.08903 -75.42484 27907 ft 332 kts 232°
2026-05-06 22:25 38.07260 -75.44654 27908 ft 348 kts 233°
2026-05-06 22:25 38.05557 -75.46894 27906 ft 356 kts 232°
2026-05-06 22:25 38.03852 -75.49125 27907 ft 358 kts 232°
2026-05-06 22:25 38.02109 -75.51393 27907 ft 359 kts 232°
2026-05-06 22:26 38.00364 -75.53667 27907 ft 359 kts 232°
2026-05-06 22:26 37.98622 -75.55947 27882 ft 361 kts 231°
2026-05-06 22:26 37.96868 -75.58266 27924 ft 367 kts 231°
2026-05-06 22:26 37.95095 -75.60615 27923 ft 369 kts 231°
2026-05-06 22:27 37.93307 -75.62960 27925 ft 370 kts 231°
2026-05-06 22:27 37.91517 -75.65297 27921 ft 371 kts 231°
2026-05-06 22:27 37.89717 -75.67640 27919 ft 371 kts 231°
2026-05-06 22:27 37.87922 -75.69975 27918 ft 371 kts 231°
2026-05-06 22:28 37.86120 -75.72317 27914 ft 371 kts 231°
2026-05-06 22:28 37.84309 -75.74671 27916 ft 379 kts 231°
2026-05-06 22:28 37.82435 -75.77118 27920 ft 392 kts 231°
2026-05-06 22:28 37.80520 -75.79617 27928 ft 398 kts 231°
2026-05-06 22:29 37.78593 -75.82122 27896 ft 398 kts 231°
2026-05-06 22:29 37.76678 -75.84609 27920 ft 401 kts 230°
2026-05-06 22:29 37.74729 -75.87140 27920 ft 401 kts 230°
2026-05-06 22:29 37.72818 -75.89612 27915 ft 384 kts 230°
2026-05-06 22:30 37.70970 -75.91995 27916 ft 376 kts 230°
2026-05-06 22:30 37.69147 -75.94351 27903 ft 374 kts 231°
2026-05-06 22:30 37.67335 -75.96695 27902 ft 373 kts 231°
2026-05-06 22:30 37.65527 -75.99036 27902 ft 372 kts 231°
2026-05-06 22:31 37.63717 -76.01378 27903 ft 372 kts 231°
2026-05-06 22:31 37.61909 -76.03718 27823 ft 373 kts 231°
2026-05-06 22:31 37.60086 -76.06074 27569 ft 376 kts 231°
2026-05-06 22:31 37.58254 -76.08438 27270 ft 377 kts 231°
2026-05-06 22:32 37.56423 -76.10796 26974 ft 375 kts 231°
2026-05-06 22:32 37.54599 -76.13139 26674 ft 374 kts 231°
2026-05-06 22:32 37.52777 -76.15478 26391 ft 372 kts 231°
2026-05-06 22:32 37.50974 -76.17787 26100 ft 369 kts 231°
2026-05-06 22:33 37.49181 -76.20086 25812 ft 366 kts 231°
2026-05-06 22:33 37.47403 -76.22372 25526 ft 365 kts 231°
2026-05-06 22:33 37.45635 -76.24644 25246 ft 363 kts 231°
2026-05-06 22:33 37.43870 -76.26907 24969 ft 362 kts 231°
2026-05-06 22:34 37.42111 -76.29156 24689 ft 360 kts 231°
2026-05-06 22:34 37.40358 -76.31402 24414 ft 359 kts 231°
2026-05-06 22:34 37.38617 -76.33636 24131 ft 357 kts 231°
2026-05-06 22:34 37.36877 -76.35864 23931 ft 356 kts 232°
2026-05-06 22:35 37.35140 -76.38082 23898 ft 356 kts 231°
2026-05-06 22:35 37.33401 -76.40299 23907 ft 357 kts 231°
2026-05-06 22:35 37.31656 -76.42522 23908 ft 357 kts 231°
2026-05-06 22:35 37.29909 -76.44748 23916 ft 357 kts 231°
2026-05-06 22:36 37.28165 -76.46972 23913 ft 357 kts 231°
2026-05-06 22:36 37.26424 -76.49195 23922 ft 356 kts 232°
2026-05-06 22:36 37.24841 -76.51566 23931 ft 354 kts 237°
2026-05-06 22:36 37.23288 -76.53976 23925 ft 355 kts 236°
2026-05-06 22:37 37.21733 -76.56380 23915 ft 355 kts 236°
2026-05-06 22:37 37.20174 -76.58782 23915 ft 355 kts 236°
2026-05-06 22:37 37.18608 -76.61183 23899 ft 355 kts 236°
2026-05-06 22:37 37.17043 -76.63580 23913 ft 356 kts 236°
2026-05-06 22:38 37.15476 -76.65980 23915 ft 356 kts 237°
2026-05-06 22:38 37.13908 -76.68382 23915 ft 356 kts 237°
2026-05-06 22:38 37.12344 -76.70781 23915 ft 356 kts 237°
2026-05-06 22:38 37.10779 -76.73183 23915 ft 356 kts 237°
2026-05-06 22:39 37.09211 -76.75583 23916 ft 356 kts 236°
2026-05-06 22:39 37.07647 -76.77977 23916 ft 356 kts 237°
2026-05-06 22:39 37.06097 -76.80343 23916 ft 356 kts 236°
2026-05-06 22:39 37.04527 -76.82740 23916 ft 356 kts 236°
2026-05-06 22:40 37.02959 -76.85135 23918 ft 356 kts 236°
2026-05-06 22:40 37.01390 -76.87529 23924 ft 356 kts 237°
2026-05-06 22:40 36.99817 -76.89931 23934 ft 357 kts 236°
2026-05-06 22:40 36.98236 -76.92338 23912 ft 359 kts 236°
2026-05-06 22:41 36.95036 -76.97209 23931 ft 364 kts 236°
2026-05-06 22:41 36.93430 -76.99653 23933 ft 364 kts 236°
2026-05-06 22:41 36.91818 -77.02102 23936 ft 364 kts 236°
2026-05-06 22:42 36.90209 -77.04543 23931 ft 364 kts 236°
2026-05-06 22:42 36.88598 -77.06982 23930 ft 364 kts 236°
2026-05-06 22:42 36.86984 -77.09423 23932 ft 364 kts 236°
2026-05-06 22:42 36.85376 -77.11861 23929 ft 364 kts 236°
2026-05-06 22:43 36.83762 -77.14309 23928 ft 364 kts 236°
2026-05-06 22:43 36.82151 -77.16748 23929 ft 364 kts 236°
2026-05-06 22:43 36.80537 -77.19187 23926 ft 364 kts 236°
2026-05-06 22:43 36.78923 -77.21627 23934 ft 364 kts 236°
2026-05-06 22:44 36.77306 -77.24070 23941 ft 366 kts 236°
2026-05-06 22:44 36.75683 -77.26520 23945 ft 367 kts 236°
2026-05-06 22:44 36.74054 -77.28975 23945 ft 367 kts 236°
2026-05-06 22:44 36.72424 -77.31424 23948 ft 367 kts 236°
2026-05-06 22:45 36.70791 -77.33873 23950 ft 367 kts 236°
2026-05-06 22:45 36.69158 -77.36321 23950 ft 367 kts 236°
2026-05-06 22:45 36.67523 -77.38771 23951 ft 367 kts 236°
2026-05-06 22:45 36.65915 -77.41186 23953 ft 367 kts 236°
2026-05-06 22:46 36.64289 -77.43630 23907 ft 367 kts 236°
2026-05-06 22:46 36.62658 -77.46078 23389 ft 366 kts 236°
2026-05-06 22:46 36.61038 -77.48507 22917 ft 362 kts 236°
2026-05-06 22:46 36.59438 -77.50900 22490 ft 357 kts 236°
2026-05-06 22:47 36.57857 -77.53259 22062 ft 352 kts 236°
2026-05-06 22:47 36.56299 -77.55584 21638 ft 347 kts 236°
2026-05-06 22:47 36.54761 -77.57881 21216 ft 343 kts 236°
2026-05-06 22:47 36.53244 -77.60144 20801 ft 339 kts 237°
2026-05-06 22:48 36.51739 -77.62387 20378 ft 336 kts 237°
2026-05-06 22:48 36.50253 -77.64604 19946 ft 333 kts 237°
2026-05-06 22:48 36.48776 -77.66806 19526 ft 330 kts 237°
2026-05-06 22:48 36.47312 -77.68983 19103 ft 327 kts 237°
2026-05-06 22:49 36.45856 -77.71150 18659 ft 326 kts 237°
2026-05-06 22:49 36.44896 -77.72577 18382 ft 324 kts 237°
2026-05-06 22:49 36.43451 -77.74724 17912 ft 323 kts 238°
2026-05-06 22:49 36.42018 -77.76853 17483 ft 320 kts 237°
2026-05-06 22:50 36.40601 -77.78954 17101 ft 316 kts 237°
2026-05-06 22:50 36.39198 -77.81033 16689 ft 313 kts 237°
2026-05-06 22:50 36.37808 -77.83096 16286 ft 311 kts 237°
2026-05-06 22:50 36.36424 -77.85151 15860 ft 309 kts 236°
2026-05-06 22:51 36.35046 -77.87191 15476 ft 307 kts 236°
2026-05-06 22:51 36.33679 -77.89215 15073 ft 306 kts 236°
2026-05-06 22:51 36.32316 -77.91234 14677 ft 305 kts 236°
2026-05-06 22:51 36.30956 -77.93248 14275 ft 304 kts 235°
2026-05-06 22:52 36.29618 -77.95226 13868 ft 303 kts 235°
2026-05-06 22:52 36.28267 -77.97221 13442 ft 302 kts 234°
2026-05-06 22:52 36.26922 -77.99203 13020 ft 300 kts 234°
2026-05-06 22:52 36.25583 -78.01177 12609 ft 298 kts 234°
2026-05-06 22:53 36.24253 -78.03136 12164 ft 297 kts 234°
2026-05-06 22:53 36.23027 -78.05174 11685 ft 294 kts 243°
2026-05-06 22:53 36.22149 -78.07451 11216 ft 293 kts 248°
2026-05-06 22:53 36.21308 -78.09751 10733 ft 294 kts 248°
2026-05-06 22:54 36.20469 -78.12051 10372 ft 290 kts 248°
2026-05-06 22:54 36.19695 -78.14300 10257 ft 278 kts 249°
2026-05-06 22:54 36.18970 -78.16483 10021 ft 272 kts 249°
2026-05-06 22:54 36.18259 -78.18633 9874 ft 269 kts 249°
2026-05-06 22:55 36.17551 -78.20775 9749 ft 269 kts 249°
2026-05-06 22:55 36.16833 -78.22937 9289 ft 272 kts 249°
2026-05-06 22:55 36.16116 -78.25079 8936 ft 267 kts 249°
2026-05-06 22:55 36.15405 -78.27196 8540 ft 265 kts 249°
2026-05-06 22:56 36.14845 -78.29346 8153 ft 262 kts 258°
2026-05-06 22:56 36.14465 -78.31537 7775 ft 259 kts 258°
2026-05-06 22:56 36.14082 -78.33712 7379 ft 257 kts 257°
2026-05-06 22:56 36.13692 -78.35901 6718 ft 263 kts 257°
2026-05-06 22:57 36.13303 -78.38068 6331 ft 250 kts 257°
2026-05-06 22:57 36.12940 -78.40081 6169 ft 229 kts 257°
2026-05-06 22:57 36.12607 -78.41921 6064 ft 209 kts 256°
2026-05-06 22:57 36.12299 -78.43621 6020 ft 200 kts 256°
2026-05-06 22:58 36.11995 -78.45300 6025 ft 199 kts 256°
2026-05-06 22:58 36.11695 -78.46967 6024 ft 198 kts 256°
2026-05-06 22:58 36.11396 -78.48624 6018 ft 198 kts 257°
2026-05-06 22:58 36.11080 -78.50284 6012 ft 198 kts 252°
2026-05-06 22:59 36.10383 -78.51741 6011 ft 201 kts 231°
2026-05-06 22:59 36.09396 -78.52978 5789 ft 201 kts 228°
2026-05-06 22:59 36.08414 -78.54191 5544 ft 199 kts 229°
2026-05-06 22:59 36.07442 -78.55399 5290 ft 198 kts 229°
2026-05-06 23:00 36.06472 -78.56606 5034 ft 198 kts 229°
2026-05-06 23:00 36.05500 -78.57815 4782 ft 198 kts 229°
2026-05-06 23:00 36.04539 -78.59009 4524 ft 194 kts 229°
2026-05-06 23:00 36.03606 -78.60169 4267 ft 191 kts 227°
2026-05-06 23:01 36.02659 -78.61347 4018 ft 190 kts 227°
2026-05-06 23:01 36.01746 -78.62481 3770 ft 187 kts 226°
2026-05-06 23:01 36.00837 -78.63609 3523 ft 183 kts 226°
2026-05-06 23:01 35.99945 -78.64717 3297 ft 181 kts 226°
2026-05-06 23:02 35.99062 -78.65812 3065 ft 180 kts 225°
2026-05-06 23:02 35.98180 -78.66906 2824 ft 179 kts 224°
2026-05-06 23:02 35.97302 -78.67995 2600 ft 179 kts 225°
2026-05-06 23:02 35.96422 -78.69086 2340 ft 179 kts 225°
2026-05-06 23:03 35.95551 -78.70165 2143 ft 174 kts 227°
2026-05-06 23:03 35.94695 -78.71226 1873 ft 174 kts 228°
2026-05-06 23:03 35.93859 -78.72261 1645 ft 166 kts 227°
2026-05-06 23:03 35.93068 -78.73239 1428 ft 153 kts 226°
2026-05-06 23:04 35.92378 -78.74093 1253 ft 132 kts 227°
2026-05-06 23:04 35.91740 -78.74883 1085 ft 129 kts 227°
2026-05-06 23:04 35.91102 -78.75673 942 ft 128 kts 225°
2026-05-06 23:04 35.90486 -78.76435 776 ft 124 kts 226°
2026-05-06 23:05 35.89868 -78.77200 596 ft 126 kts 225°
2026-05-06 23:05 35.89250 -78.77962 465 ft 125 kts 225°
2026-05-06 23:05 35.88705 -78.78644 393 ft 93 kts 225°
2026-05-06 23:05 35.88335 -78.79097 391 ft 63 kts 225°
2026-05-06 23:06 35.88073 -78.79418 393 ft 37 kts 223°
2026-05-06 23:06 35.87934 -78.79462 393 ft 5 kts 142°
2026-05-06 23:06 35.87920 -78.79442 392 ft 0 kts 135°
2026-05-06 23:07 35.87917 -78.79441 392 ft 2 kts 145°
2026-05-06 23:07 35.87879 -78.79470 392 ft 10 kts 225°
2026-05-06 23:08 35.87826 -78.79536 392 ft 12 kts 225°
2026-05-06 23:08 35.87768 -78.79609 392 ft 13 kts 225°
2026-05-06 23:08 35.87703 -78.79688 392 ft 13 kts 225°
2026-05-06 23:08 35.87633 -78.79774 391 ft 15 kts 225°
2026-05-06 23:09 35.87559 -78.79833 391 ft 10 kts 168°
2026-05-06 23:09 35.87521 -78.79792 391 ft 7 kts 140°
2026-05-06 23:09 35.87480 -78.79746 392 ft 8 kts 135°
2026-05-06 23:09 35.87436 -78.79693 392 ft 9 kts 136°
2026-05-06 23:10 35.87409 -78.79627 392 ft 9 kts 71°
2026-05-06 23:10 35.87454 -78.79567 392 ft 10 kts 45°
2026-05-06 23:10 35.87504 -78.79506 392 ft 10 kts 45°
2026-05-06 23:10 35.87554 -78.79449 392 ft 8 kts 34°
2026-05-06 23:11 35.87590 -78.79415 392 ft 5 kts 42°
2026-05-06 23:11 35.87607 -78.79417 392 ft 2 kts 318°
2026-05-06 23:11 35.87618 -78.79431 392 ft 3 kts 317°
2026-05-06 23:11 35.87626 -78.79441 392 ft 0 kts 316°